Sebastian, FL (32958)

2:58 PM EDT on August 24, 2016 (GMT -0400)
OZWORLD - *Sebastian Highlands* - | | Change Station

Elev 23 ft 27.80 °N, 80.48 °W | Updated 14 seconds ago

Overcast
Overcast
82.0 °F
Feels Like 91 °F
N
4.0
Wind Variable Wind from ENE
Gusts 6.0 mph

Today
High -- | Low -- °F
--% Chance of Precip.
Yesterday
High -- | Low -- °F
Precip. -- in
Pressure 30.09 in
Visibility 5.0 miles
Clouds Few 1400 ft
Scattered Clouds 5000 ft
Overcast 7000 ft
Heat Index 91 °F
Dew Point 79 °F
Humidity 90%
Rainfall 0.02 in
Snow Depth Not available.
6:57 AM 7:50 PM
Waning Gibbous, 54% visible
METAR KVRB 241853Z 05005KT 5SM BR FEW014 SCT050 OVC070 27/25 A3009 RMK AO2 LTG DSNT ALQDS RAB31E53 TSB36E51 SLP187 P0004 T02670250
Pressure 30.09 in
Visibility 5.0 miles
Clouds Few 1400 ft
Scattered Clouds 5000 ft
Overcast 7000 ft
Heat Index 91 °F
Dew Point 79 °F
Humidity 90%
Rainfall 0.02 in
Snow Depth Not available.
6:57 AM 7:50 PM
Waning Gibbous, 54% visible
METAR KVRB 241853Z 05005KT 5SM BR FEW014 SCT050 OVC070 27/25 A3009 RMK AO2 LTG DSNT ALQDS RAB31E53 TSB36E51 SLP187 P0004 T02670250
A tropical disturbance we've monitored since last week, may have a dangerous future in store for the southeast U.S. and Gulf coasts this weekend into next week. The National Weather Service has issued a flash flood watch for Puerto Rico and the U.S. Virgin Islands. Rainfall totals of 2-4 inches (locally higher) are expected through Wednesday night in those areas.

The National Hurricane Center says this system has a medium to high chance of development into a tropical depression or tropical storm over the next 2 to 5 days. A tight consensus of our guidance suggests the disturbance should continue in a general west or west-northwest trajectory the next several days.

10-Day Weather Forecast

Almanac

Astronomy

Aug. 24, 2016 Rise Set
Actual Time
Civil Twilight
Nautical Twilight
Astronomical Twilight
Moon
Length of Visible Light
Length of Day
Tomorrow will be .
, % of the Moon is Illuminated

Today's Extremes

State Highs State Lows

Community

WunderPhotos

Upload Photos

1,934,677 photos uploaded!

WunderBlog® & News

Nearby

Air Quality

  Air Quality AQ Index Pollutant
Not available.

Snow Depth

Station Depth Elevation

Earthquake Activity

City Distance Mag. Time & Date
Minimum magnitude displayed is 2.5.

Coastal Water Temperatures

Place Temperature

Stations

Nearby Weather Stations

Station Location Temp. Windchill Dew Point Humidity Wind Precip. Elev Updated Type
                   

Watches & Warnings

There are currently no watches in effect.